Simultaneous Nadir Overpasses (SNOs) Predictions

Prediction of SNOs near equator between AQUA and NPP Satellite Orbit:

Table of predicted SNOs near equator for the next 14.0 days since TLE Epoch: 12/3/2011
Index Date (AQUA) Time (AQUA) AQUA Lat,Lon Date (NPP) Time (NPP) NPP Lat,Lon Distance(km) Time Diff (sec)
1 12/04/2011 23:26:08 -29.96, 27.43 12/04/2011 23:16:08 -30.01, 27.18 24.98 600
2 12/05/2011 00:07:56 2.20,-158.56 12/04/2011 23:59:00 2.18,-158.80 26.58 536
3 12/05/2011 00:56:03 2.31, 10.06 12/05/2011 00:48:22 2.43, 9.56 56.78 461
4 12/05/2011 01:44:19 -6.81, 178.65 12/05/2011 01:37:53 -6.98, 177.89 86.31 386
5 12/07/2011 15:35:44 -5.33, 149.04 12/07/2011 15:25:56 -5.31, 148.98 6.91 588
6 12/07/2011 16:23:59 0.77, -42.36 12/07/2011 16:15:26 0.70, -42.69 37.06 513
7 12/07/2011 17:12:06 3.74, 126.26 12/07/2011 17:04:49 3.85, 125.66 67.39 437
8 12/07/2011 18:00:21 -8.30, -65.14 12/07/2011 17:54:19 -8.46, -66.00 96.53 362
9 12/10/2011 07:51:44 -3.86, -94.75 12/10/2011 07:42:21 -3.85, -94.91 18.23 563
10 12/10/2011 08:39:59 -0.70, 73.85 12/10/2011 08:31:51 -0.77, 73.42 48.23 488
11 12/10/2011 09:28:07 5.15,-117.54 12/10/2011 09:21:14 5.32,-118.23 78.31 413
12 12/12/2011 23:26:01 29.97,-152.54 12/12/2011 23:16:01 30.12,-152.84 34.10 600
13 12/13/2011 00:07:43 -2.34, 21.48 12/12/2011 23:58:45 -2.29, 21.22 29.44 538
14 12/13/2011 00:55:58 -2.21,-169.93 12/13/2011 00:48:15 -2.33,-170.45 59.61 463
15 12/13/2011 01:44:05 6.72, -1.30 12/13/2011 01:37:38 6.88, -2.10 89.43 387
16 12/15/2011 15:35:32 5.24, -30.90 12/15/2011 15:25:45 5.22, -30.99 10.89 587
17 12/15/2011 16:23:40 -0.79, 137.72 12/15/2011 16:15:08 -0.68, 137.36 41.40 512
18 12/15/2011 17:11:54 -3.82, -53.68 12/15/2011 17:04:38 -3.94, -54.31 71.39 436




NCC Satellite Simultaneous Nadir Overpasses (SNOs) Prediction Service
